Location: Estes Park
(40.3770°N, 105.5210°W)
Time: 05:09:37
(UTC-07:00)

Envisat - Pass Details

Date: 08 October 2017
Orbit: 764 x 766 km, 98.2° (Epoch: 17 December)

Event Time Altitude Azimuth Distance (km) Brightness Sun altitude
Exits shadow 20:21:41 46° 73° (ENE) 1,027 3.2 -21.6°
Maximum altitude 20:21:44 46° 71° (ENE) 1,027 3.2 -21.6°
Drops below altitude 10° 20:26:34 10° 360° (N) 2,308 5.6 -22.5°
Sets 20:28:57 0° 354° (N) 3,239 6.5 -22.9°
